Weather History for Broomfield, CO

Change the Weather History Date:

Sunday, March 18, 2012

  Actual Average Record
Temperature  
Mean Temperature 57 °F -  
Max Temperature 68 °F 51 °F 75 °F (2007)
Min Temperature 46 °F 31 °F 13 °F (1988)
Degree Days  
Heating Degree Days 8    
Growing Degree Days 7 (Base 50)    
Moisture  
Dew Point 9 °F    
Average Humidity 18    
Maximum Humidity 40    
Minimum Humidity 9    
Precipitation  
Precipitation 0.00 in - - ()
Sea Level Pressure  
Sea Level Pressure 29.51 in    
Wind  
Wind Speed 11 mph (South)    
Max Wind Speed 32 mph    
Max Gust Speed 53 mph    
Visibility 10 miles    
Events Rain    
Averages and records for this station are not official NWS values.
T = Trace of Precipitation, MM = Missing Value Source: NWS Daily Summary

Daily Weather History Graph

Daily Weather History Graph

Search for Another Location

Airport:

Trip Planner

Search our weather history database for the weather conditions in past years. The results will help you decide how hot, cold, wet, or windy it might be!

Date:

Astronomy

Mar. 18, 2012 Rise Set
Actual Time 7:06 AM MDT 7:10 PM MDT
Civil Twilight 6:39 AM MDT 7:37 PM MDT
Nautical Twilight 6:07 AM MDT 8:09 PM MDT
Astronomical Twilight 5:35 AM MDT 8:41 PM MDT
Moon 4:46 AM MDT (3/18) 3:40 PM MDT (3/18)
Length of Visible Light 12h 58m
Length of Day
12h 04m
Waning Crescent, 14% of the Moon is Illuminated
Mar 18
Waning Crescent
Mar 22
New
Mar 30
First Quarter
Apr 6
Full
Apr 13
Last Quarter

Hourly Weather History & Observations

Time (MDT) Temp. Windchill Dew Point Humidity Pressure Visibility Wind Dir Wind Speed Gust Speed Precip Events Conditions
12:17 AM 53.6 °F - 5.0 °F 14% 29.61 in 10.0 mi SW 9.2 mph - N/A   Clear
12:37 AM 51.8 °F - 6.8 °F 16% 29.62 in 10.0 mi SSW 10.4 mph - N/A   Clear
12:57 AM 53.6 °F - 5.0 °F 14% 29.62 in 10.0 mi South 10.4 mph - N/A   Clear
1:17 AM 53.6 °F - 3.2 °F 13% 29.61 in 10.0 mi South 9.2 mph - N/A   Clear
1:37 AM 53.6 °F - 1.4 °F 12% 29.61 in 10.0 mi SSW 5.8 mph - N/A   Clear
1:57 AM 53.6 °F - 3.2 °F 13% 29.61 in 10.0 mi SW 5.8 mph - N/A   Clear
2:17 AM 50.0 °F - 5.0 °F 16% 29.61 in 10.0 mi SW 8.1 mph - N/A   Clear
2:36 AM 51.8 °F - 5.0 °F 15% 29.61 in 10.0 mi SSW 8.1 mph - N/A   Clear
2:57 AM 51.8 °F - 6.8 °F 16% 29.60 in 10.0 mi South 9.2 mph - N/A   Clear
3:17 AM 51.8 °F - 3.2 °F 14% 29.60 in 10.0 mi South 8.1 mph - N/A   Clear
3:37 AM 51.8 °F - 5.0 °F 15% 29.59 in 10.0 mi SW 3.5 mph - N/A   Clear
3:57 AM 51.8 °F - 6.8 °F 16% 29.58 in 10.0 mi SW 5.8 mph - N/A   Clear
4:16 AM 50.0 °F - 12.2 °F 22% 29.57 in 10.0 mi South 10.4 mph - N/A   Clear
4:37 AM 51.8 °F - 10.4 °F 19% 29.57 in 10.0 mi SSW 10.4 mph - N/A   Clear
4:57 AM 50.0 °F - 14.0 °F 24% 29.57 in 10.0 mi South 9.2 mph - N/A   Clear
5:16 AM 51.8 °F - 10.4 °F 19% 29.57 in 10.0 mi SSW 5.8 mph - N/A   Clear
5:36 AM 51.8 °F - 8.6 °F 18% 29.57 in 10.0 mi SE 6.9 mph - N/A   Clear
5:49 AM 51.8 °F - 6.8 °F 16% 29.57 in 20.0 mi SE 8.1 mph - N/A   Partly Cloudy
5:57 AM 50.0 °F - 8.6 °F 19% 29.57 in 10.0 mi SE 8.1 mph - N/A   Clear
6:53 AM 51.8 °F - 6.8 °F 16% 29.56 in 50.0 mi Calm Calm - N/A   Mostly Cloudy
7:04 AM 48.2 °F - 10.4 °F 22% 29.55 in 70.0 mi SSE 8.1 mph - N/A   Mostly Cloudy
10:51 AM 64.4 °F - 3.2 °F 9% 29.49 in 50.0 mi SSE 15.0 mph 25.3 mph N/A   Mostly Cloudy
12:50 PM 66.2 °F - 10.4 °F 11% 29.43 in 50.0 mi SSE 26.5 mph 34.5 mph N/A   Mostly Cloudy
1:45 PM 68.0 °F - 8.6 °F 10% 29.39 in 50.0 mi South 25.3 mph 34.5 mph N/A   Mostly Cloudy
3:51 PM 66.2 °F - 6.8 °F 10% 29.32 in 8.0 mi SSE 25.3 mph 40.3 mph N/A   Overcast
4:49 PM 66.2 °F - 8.6 °F 11% 29.31 in 6.0 mi South 32.2 mph 52.9 mph N/A   Haze
5:50 PM 57.2 °F - 21.2 °F 25% 29.38 in 6.0 mi SW 28.8 mph 40.3 mph N/A Rain Light Rain Showers
6:22 PM 57.2 °F - 21.2 °F 25% 29.37 in 6.0 mi SSW 13.8 mph - N/A   Haze
6:47 PM 53.6 °F - 24.8 °F 33% 29.36 in 6.0 mi SSW 10.4 mph - N/A   Haze
7:47 PM 53.6 °F - 23.0 °F 30% 29.37 in 10.0 mi South 18.4 mph 25.3 mph N/A   Mostly Cloudy
8:47 PM 50.0 °F - 26.6 °F 40% 29.37 in 10.0 mi SSE 18.4 mph 29.9 mph N/A   Scattered Clouds
9:46 PM 50.0 °F - 14.0 °F 24% 29.40 in 10.0 mi SSE 24.2 mph 31.1 mph N/A   Scattered Clouds
11:17 PM 46.4 °F 37.2 °F -0.4 °F 14% 29.44 in 10.0 mi SW 29.9 mph 40.3 mph N/A   Clear
11:37 PM 46.4 °F 38.3 °F -0.4 °F 14% 29.45 in 10.0 mi SSW 23.0 mph 31.1 mph N/A   Clear
11:57 PM 46.4 °F 39.8 °F -0.4 °F 14% 29.45 in 10.0 mi South 16.1 mph 33.4 mph N/A   Clear